Pittsfield, MA

6:09 AM EDT on April 22, 2018 (GMT -0400)
Pittsfield Municipal

Weather History for KPSF - April, 2013

Change the Weather History Date:

Tuesday, April 9, 2013

  Actual Average Record
Temperature  
Mean Temperature 51 °F 41 °F  
Max Temperature 59 °F 52 °F 75 °F (1945)
Min Temperature 43 °F 31 °F 20 °F (1936)
Degree Days  
Heating Degree Days 14 24  
Month to date heating degree days 236 228  
Since 1 July heating degree days 6230 6635  
Cooling Degree Days 0 0  
Month to date cooling degree days 0 0  
Year to date cooling degree days 0 0  
Growing Degree Days 2 (Base 50)    
Moisture  
Dew Point 41 °F    
Average Humidity 70    
Maximum Humidity 93    
Minimum Humidity 47    
Precipitation  
Precipitation 0.02 in 0.16 in 0.66 in (1926)
Month to date precipitation 0.18 1.44  
Year to date precipitation 5.60 10.41  
Sea Level Pressure  
Sea Level Pressure 29.91 in    
Wind  
Wind Speed 7 mph (WNW)    
Max Wind Speed 30 mph    
Max Gust Speed 40 mph    
Visibility 9 miles    
Events Rain    
T = Trace of Precipitation, MM = Missing Value Source: NWS Daily Summary

Daily Weather History Graph

Daily Weather History Graph

Search for Another Location

Airport or City:

Astronomy

Apr. 09, 2013 Rise Set
Actual Time 6:21 AM EDT 7:28 PM EDT
Civil Twilight 5:52 AM EDT 7:57 PM EDT
Nautical Twilight 5:18 AM EDT 8:31 PM EDT
Astronomical Twilight 4:42 AM EDT 9:08 PM EDT
Moon 5:43 AM EDT (4/9) 7:01 PM EDT (4/9)
Length of Visible Light 14h 04m
Length of Day
13h 06m
Waning Crescent, 1% of the Moon is Illuminated
Apr 9
Waning Crescent
Apr 10
New
Apr 18
First Quarter
Apr 25
Full
May 2
Last Quarter

Hourly Weather History & Observations

Time (EDT) Temp. Windchill Dew Point Humidity Pressure Visibility Wind Dir Wind Speed Gust Speed Precip Events Conditions
12:54 AM 55.9 °F - 37.0 °F 49% 29.93 in 10.0 mi South 9.2 mph - N/A   Overcast
2:54 AM 54.0 °F - 39.9 °F 59% 29.84 in 10.0 mi Variable 6.9 mph 18.4 mph N/A   Mostly Cloudy
3:54 AM 50.0 °F - 46.0 °F 86% 29.83 in 6.0 mi SE 9.2 mph - 0.01 in Rain Light Rain
4:54 AM 48.0 °F - 44.1 °F 86% 29.84 in 9.0 mi Calm Calm - 0.00 in   Clear
5:54 AM 46.0 °F - 43.0 °F 89% 29.84 in 8.0 mi Calm Calm - N/A   Clear
6:54 AM 44.1 °F 42.5 °F 42.1 °F 93% 29.85 in 3.0 mi NE 3.5 mph - N/A   Clear
7:54 AM 48.9 °F - 46.0 °F 90% 29.83 in 4.0 mi Calm Calm - N/A   Partly Cloudy
8:54 AM 55.9 °F - 46.9 °F 72% 29.87 in 10.0 mi NW 13.8 mph 25.3 mph 0.01 in   Mostly Cloudy
9:54 AM 59.0 °F - 44.1 °F 58% 29.89 in 10.0 mi WNW 25.3 mph 34.5 mph N/A   Partly Cloudy
10:54 AM 55.9 °F - 43.0 °F 62% 29.92 in 10.0 mi WNW 17.3 mph 32.2 mph N/A   Clear
11:54 AM 57.9 °F - 39.9 °F 51% 29.93 in 10.0 mi WNW 23.0 mph 33.4 mph N/A   Clear
12:54 PM 55.9 °F - 41.0 °F 57% 29.93 in 10.0 mi WNW 16.1 mph 33.4 mph N/A   Partly Cloudy
1:54 PM 57.9 °F - 39.9 °F 51% 29.95 in 10.0 mi WNW 10.4 mph 31.1 mph N/A   Partly Cloudy
2:54 PM 59.0 °F - 39.9 °F 49% 29.95 in 10.0 mi NW 12.7 mph 24.2 mph N/A   Clear
3:54 PM 57.0 °F - 39.0 °F 51% 29.95 in 10.0 mi WNW 8.1 mph - N/A   Clear
4:54 PM 57.0 °F - 37.9 °F 49% 29.96 in 10.0 mi West 9.2 mph - N/A   Clear
5:54 PM 55.9 °F - 37.9 °F 51% 29.96 in 10.0 mi West 8.1 mph - N/A   Clear
6:54 PM 54.0 °F - 37.9 °F 55% 29.96 in 10.0 mi Calm Calm - N/A   Clear
7:54 PM 50.0 °F - 37.9 °F 63% 29.98 in 10.0 mi Calm Calm - N/A   Clear
8:54 PM 50.0 °F - 39.0 °F 66% 29.98 in 10.0 mi Calm Calm - N/A   Scattered Clouds
9:54 PM 48.0 °F - 39.0 °F 71% 29.96 in 10.0 mi Calm Calm - N/A   Scattered Clouds
10:54 PM 48.9 °F - 37.9 °F 66% 29.91 in 10.0 mi ESE 4.6 mph - N/A   Mostly Cloudy
11:54 PM 48.0 °F - 39.0 °F 71% 29.90 in 10.0 mi Calm Calm - N/A   Overcast